Regional Weather Roundup
Issued by NWS Charleston, SC

Current Version | Previous Version | Graphics & Text | Print | Product List | Glossary On
Versions: 1 2 3 4 5 6 7 8 9 10 11 12 13 14 15 16 17 18 19 20 21 22 23 24 25 26 27 28 29 30 31 32 33 34 35 36 37 38 39 40 41 42 43 44 45 46 47 48 49 50
000 ASUS42 KCHS 291312 RWRCHS REGIONAL WEATHER ROUNDUP NATIONAL WEATHER SERVICE CHARLESTON SC 900 AM EDT WED MAR 29 2017 NOTE: "FAIR" INDICATES FEW OR NO CLOUDS BELOW 12,000 FEET WITH NO SIGNIFICANT WEATHER AND/OR OBSTRUCTIONS TO VISIBILITY. NOT ALL STATIONS ARE QUALITY CONTROLLED. USE DATA WITH CAUTION... ESPECIALLY DEWPOINT OBSERVATIONS. SCZ027-030-031-034>040-042>050-291400- ...SOUTHEAST SOUTH CAROLINA... CITY SKY/WX TMP DP RH WIND PRES REMARKS N CHARLESTON MOSUNNY 67 55 65 NE9 30.01R WATERFRONT PRK N/A 65 59 81 N8 29.99R JOHNS ISLAND FAIR 68 59 73 N7 30.01R PINOPOLIS N/A 64 57 77 NE7 29.92R MONCKS CORNER FAIR 64 52 63 N6 30.02R SUMMERVILLE FAIR 63 55 77 N5 30.03R BEAUFORT MCAS SUNNY 68 61 78 NE8 30.01R BEAUFORT ARPT FAIR 66 59 77 NE8 30.01R HAZE HILTON HEAD IS SUNNY 68 61 77 N7 30.02R WALTERBORO SUNNY 64 54 68 N5 30.03R ALLENDALE FAIR 64 54 68 VRB5 30.02R ...SOUTHERN MIDLANDS AND PEE DEE... CITY SKY/WX TMP DP RH WIND PRES REMARKS GEORGETOWN FAIR 64 54 68 N8 30.01R KINGSTREE FAIR 63 52 67 N5 30.02R ORANGEBURG SUNNY 66 51 58 NE10 30.03R BARNWELL FAIR 68 55 64 NE9 30.03R AIKEN FAIR 63 52 67 NE9 30.07R MANNING FAIR 63 52 67 N8 30.03R COLUMBIA SUNNY 63 55 75 CALM 30.04R SUMTER SUNNY 65 52 63 N3 30.01R FLORENCE SUNNY 64 53 67 N12 30.02R MYRTLE BEACH NOT AVBL N MYRTLE BEACH SUNNY 65 54 67 N7 30.00R $$ GAZ063-065-086>088-099>101-113>116-118-119-134>141-150-291400- ...SOUTHEAST GEORGIA... CITY SKY/WX TMP DP RH WIND PRES REMARKS SAVANNAH ARPT MOSUNNY 68 59 73 N7 30.01R HUNTER AAF SUNNY 69 64 83 N8 29.99R FORT STEWART SUNNY 68 62 83 N3 29.99R STATESBORO SUNNY 68 60 75 NE3 30.03R SYLVANIA SUNNY N/A N/A N/A E3 30.04R CLAXTON FAIR N/A N/A N/A CALM 30.03R ...CSRA...CENTRAL AND FAR SOUTHEAST GEORGIA... CITY SKY/WX TMP DP RH WIND PRES REMARKS THOMSON SUNNY 60 54 81 CALM 30.10R AUGUSTA-BUSH SUNNY 66 56 70 NW3 30.04R AUGUSTA-DANIEL SUNNY 68 49 50 E8 30.05R SWAINSBORO FAIR 68 57 68 E3 30.04R VIDALIA SUNNY 68 63 83 N5 30.04R EASTMAN FAIR 66 65 94 CALM 30.06R HAZLEHURST FAIR 69 67 94 CALM 30.02R ALMA SUNNY 67 65 93 NW3 30.02R WAYCROSS SUNNY 72 70 92 N7 30.02R JESUP FAIR 70 63 78 NW7 30.02R BAXLEY FAIR 68 68 100 NW3 30.02R BRUNSWICK SUNNY 70 64 83 NW8 30.02R SAINT SIMONS SUNNY 70 63 78 NW6 30.00R $$ SCZ027-028-034-036>038-045-046-048>050-GAZ119-141-291400- ...LAKE AND SUPPLEMENTAL COASTAL OBSERVATIONS... STATION/POSITION TIME TEMP WIND PRES WAVE SWELL AIR SEA DIR/SP/G HT/PER HT/PER/DIR (UTC) (F) (DEG/KT/KT) (MB) (FT/S) (FT/S/D) WINYAH BAY NOT AVBL LAKE MURRAY 1220 62 CALM / 1 1016.9 ACE BASIN NERRS NOT AVBL FORT PULASKI 1248 67 66 360/ 7/ 10 1016.3R SAPELO ISLAND 1200 66 310/ 4 1016.0 $$ ANZ835-935-AMZ111-154-330-350-352-354-370-450-454-472-291400- ...C-MAN AND BUOY OBSERVATIONS... STATION/POSITION TIME TEMP WIND PRES WAVE SWELL AIR SEA DIR/SP/G HT/PER HT/PER/DIR (UTC) (F) (DEG/KT/KT) (MB) (FT/S) (FT/S/D) BUOY 41004 1250 70 70 30/ 12/ 14 1014.8R 4/10 3/110/10 BUOY 41008 1250 66 64 280/ 4/ 6 1015.6R 3/10 3/ 90/10 FOLLY BEACH CMAN 1200 65 10/ 6/ 8 1015.8R CAPERS NEARSHORE NOT AVBL FRIPP NEARSHORE 1208 65 63 360/ 6/ 8 1015.0R STATION/POSITION TIME TEMP WIND PRES WAVE SWELL AIR SEA DIR/SP/G HT/PER HT/PER/DIR (UTC) (F) (DEG/KT/KT) (MB) (FT/S) (FT/S/D) 5E ST. MARYS GA 1230 68 N/A 4/10 2/120/11 FRYING PAN BUOY 1250 69 74 10/ 12/ 16 1015.1R 4/10 3/140/10 BUOY 41025 1250 59 74 10/ 19/ 23 1015.4R 5/10 3/140/10 CAPE LOOKOUT NC 1200 63 20/ 11/ 14 1014.9R BUOY 41002 1250 68 72 320/ 12/ 14 1015.0R 6/10 5/110/10 BUOY 41010 NOT AVBL ST AUGUSTINE FL 1300 68 67 260/ 7/ 9 1017.9R $$

USA.gov is the U.S. government's official web portal to all federal, state and local government web resources and services.